TimeEST,TemperatureF,Dew PointF,Humidity,Sea Level PressureIn,VisibilityMPH,Wind Direction,Wind SpeedMPH,Gust SpeedMPH,PrecipitationIn,Events,Conditions,WindDirDegrees,DateUTC
12:53 AM,30.9,28.0,89,29.91,7.0,Variable,4.6,-,0.01,,Overcast,0,2013-02-14 05:53:00
1:53 AM,30.9,26.1,82,29.92,9.0,West,3.5,-,N/A,,Overcast,280,2013-02-14 06:53:00
2:53 AM,30.0,25.0,82,29.94,10.0,Variable,3.5,-,N/A,,Overcast,0,2013-02-14 07:53:00
3:53 AM,30.0,24.1,79,29.95,10.0,WSW,3.5,-,N/A,,Overcast,250,2013-02-14 08:53:00
4:49 AM,28.4,24.8,86,29.95,10.0,SSW,5.8,-,N/A,,Scattered Clouds,210,2013-02-14 09:49:00
4:53 AM,28.9,24.1,82,29.99,10.0,SW,4.6,-,N/A,,Mostly Cloudy,220,2013-02-14 09:53:00
5:53 AM,28.9,25.0,85,29.99,9.0,Variable,3.5,-,N/A,,Overcast,0,2013-02-14 10:53:00
6:53 AM,30.0,26.1,85,30.00,10.0,South,4.6,-,N/A,,Overcast,190,2013-02-14 11:53:00
7:01 AM,30.2,26.6,86,29.96,10.0,South,5.8,-,N/A,,Overcast,190,2013-02-14 12:01:00
7:31 AM,30.2,26.6,86,29.97,10.0,South,5.8,-,N/A,,Overcast,190,2013-02-14 12:31:00
7:53 AM,30.0,26.1,85,30.00,10.0,South,5.8,-,N/A,,Overcast,190,2013-02-14 12:53:00
8:53 AM,30.9,27.0,85,30.01,10.0,Variable,4.6,-,N/A,,Overcast,0,2013-02-14 13:53:00
9:53 AM,33.1,28.9,85,30.01,10.0,SSW,5.8,-,N/A,,Overcast,200,2013-02-14 14:53:00
10:42 AM,33.8,28.4,81,29.97,10.0,South,8.1,-,N/A,,Scattered Clouds,180,2013-02-14 15:42:00
10:53 AM,34.0,28.9,82,30.01,10.0,SSW,5.8,-,0.01,,Scattered Clouds,200,2013-02-14 15:53:00
11:03 AM,33.8,28.4,81,29.97,10.0,SSW,5.8,-,0.02,,Mostly Cloudy,200,2013-02-14 16:03:00
11:53 AM,36.0,28.9,76,30.01,10.0,SSW,12.7,18.4,0.12,,Overcast,200,2013-02-14 16:53:00
12:53 PM,37.9,30.0,73,29.99,10.0,South,10.4,-,N/A,,Mostly Cloudy,170,2013-02-14 17:53:00
1:51 PM,39.2,28.4,65,29.93,10.0,SSE,10.4,16.1,N/A,,Mostly Cloudy,160,2013-02-14 18:51:00
1:53 PM,39.0,30.0,70,29.96,10.0,SSE,10.4,16.1,N/A,,Mostly Cloudy,160,2013-02-14 18:53:00
2:01 PM,39.2,30.2,70,29.92,10.0,South,8.1,18.4,N/A,,Mostly Cloudy,190,2013-02-14 19:01:00
2:13 PM,39.2,28.4,65,29.92,10.0,South,8.1,-,N/A,,Mostly Cloudy,170,2013-02-14 19:13:00
2:53 PM,41.0,28.9,62,29.93,10.0,South,10.4,18.4,N/A,,Clear,170,2013-02-14 19:53:00
3:53 PM,43.0,28.9,58,29.92,10.0,South,12.7,19.6,N/A,,Partly Cloudy,170,2013-02-14 20:53:00
4:53 PM,42.1,28.0,58,29.92,10.0,South,5.8,-,N/A,,Mostly Cloudy,190,2013-02-14 21:53:00
5:53 PM,42.1,28.0,58,29.93,10.0,South,12.7,-,N/A,,Clear,180,2013-02-14 22:53:00
6:53 PM,39.9,28.0,63,29.94,10.0,South,12.7,-,N/A,,Clear,180,2013-02-14 23:53:00
7:53 PM,41.0,28.0,60,29.94,10.0,South,4.6,-,N/A,,Overcast,180,2013-02-15 00:53:00
8:53 PM,43.0,28.0,56,29.94,10.0,SSW,4.6,-,N/A,,Overcast,200,2013-02-15 01:53:00
9:53 PM,43.0,28.0,56,29.94,10.0,SW,3.5,-,0.00,Rain,Light Rain,220,2013-02-15 02:53:00
10:53 PM,42.1,28.0,58,29.96,10.0,NW,9.2,-,0.00,,Overcast,310,2013-02-15 03:53:00
11:53 PM,39.9,28.9,65,29.95,10.0,South,3.5,-,N/A,,Partly Cloudy,190,2013-02-15 04:53:00